DW7807 Weather Reports


time (UTC)temp
C
wind
direction
speed
KPH
gust
KPH
rain 1hr
cm
rain 24hr
cm
rain mn
cm
humidity
%
barometer
mb
20260510021518 14 227 0.0 0.0 0.00 0.18 0.18 71 1011.7
20260510020008 14 227 0.0 0.0 0.00 0.18 0.18 70 1011.7
20260510014508 15 227 0.0 0.0 0.00 0.18 0.18 70 1011.3
20260510013008 15 227 0.0 0.0 0.00 0.18 0.18 69 1011.2
20260510011509 15 227 0.0 0.0 0.00 0.18 0.18 69 1011.0
20260510010007 15 227 0.0 0.0 0.00 0.18 0.18 68 1010.8
20260510004505 15 227 0.0 0.0 0.00 0.18 0.18 68 1010.6
20260510003005 15 227 0.0 0.0 0.00 0.18 0.18 66 1010.4
20260510001505 16 226 0.0 0.0 0.00 0.18 0.18 64 1010.3
20260510000007 17 242 0.0 0.0 0.00 0.18 0.18 62 1010.0
20260509234515 17 230 0.0 4.8 0.00 0.18 0.18 62 1009.9
20260509233003 17 229 0.0 8.0 0.00 0.18 0.18 60 1009.8
20260509231604 17 220 1.6 14.5 0.00 0.18 0.18 61 1009.8
20260509230105 17 265 6.4 14.5 0.00 0.18 0.18 59 1009.9
20260509224603 17 229 6.4 16.1 0.00 0.18 0.18 59 1010.2
20260509223103 17 198 4.8 17.7 0.00 0.18 0.18 60 1010.3
20260509221658 17 259 3.2 17.7 0.00 0.18 0.18 60 1010.3
20260509220054 17 261 4.8 16.1 0.00 0.18 0.18 62 1010.4
20260509214553 16 273 6.4 17.7 0.00 0.18 0.18 61 1010.4
20260509213056 17 263 4.8 16.1 0.00 0.18 0.18 62 1010.4
20260509211552 17 261 9.7 17.7 0.00 0.18 0.18 61 1010.3
20260509210058 17 284 4.8 20.9 0.00 0.18 0.18 63 1010.1
20260509204552 17 278 6.4 16.1 0.00 0.18 0.18 63 1010.3
20260509203055 16 282 4.8 11.3 0.00 0.18 0.18 64 1010.3
20260509201546 16 280 3.2 12.9 0.00 0.18 0.18 63 1010.3
20260509200045 16 277 8.0 17.7 0.00 0.18 0.18 62 1010.4
20260509194543 16 253 3.2 12.9 0.00 0.18 0.18 67 1010.7
20260509193041 16 269 0.0 0.0 0.00 0.18 0.18 64 1010.7
20260509191538 15 268 3.2 16.1 0.00 0.18 0.18 65 1010.7
20260509190037 15 248 4.8 17.7 0.00 0.18 0.18 64 1010.8
20260509184544 15 232 0.0 0.0 0.00 0.18 0.18 67 1010.7
20260509183030 14 217 0.0 0.0 0.00 0.18 0.18 72 1010.7
20260509181528 14 219 0.0 0.0 0.00 0.18 0.18 75 1010.6
20260509180035 13 219 0.0 0.0 0.00 0.18 0.18 73 1010.8
20260509174529 13 218 0.0 0.0 0.00 0.18 0.18 74 1010.8
20260509173026 13 240 0.0 0.0 0.00 0.18 0.18 78 1010.8
20260509171524 13 238 0.0 0.0 0.00 0.18 0.18 76 1010.9
20260509170039 13 238 0.0 0.0 0.00 0.18 0.18 80 1011.1
20260509164523 12 238 0.0 0.0 0.00 0.18 0.18 81 1011.0
20260509163026 12 238 0.0 0.0 0.00 0.18 0.18 82 1010.8
20260509161520 12 238 0.0 0.0 0.00 0.18 0.18 82 1011.0
20260509160020 12 238 0.0 0.0 0.00 0.18 0.18 83 1011.1
20260509154519 11 238 0.0 0.0 0.00 0.18 0.18 83 1011.3
20260509153020 11 198 0.0 0.0 0.00 0.18 0.18 83 1011.2
20260509151516 11 198 0.0 0.0 0.00 0.18 0.18 83 1011.4
20260509150016 11 198 0.0 0.0 0.00 0.18 0.18 83 1011.5
20260509144518 11 196 0.0 0.0 0.00 0.18 0.18 83 1011.4
20260509143019 10 127 0.0 0.0 0.00 0.18 0.18 83 1011.4
20260509141533 10 127 0.0 0.0 0.00 0.18 0.18 83 1011.4
20260509140013 10 128 0.0 0.0 0.00 0.18 0.18 83 1011.5
20260509134525 10 123 0.0 0.0 0.00 0.18 0.18 83 1011.7
20260509133011 10 129 0.0 0.0 0.00 0.18 0.18 83 1011.7
20260509131511 10 18 0.0 0.0 0.03 0.18 0.18 83 1011.8
20260509130010 10 18 0.0 0.0 0.05 0.18 0.18 83 1011.7
20260509124514 9 18 0.0 0.0 0.05 0.18 0.18 83 1011.9
20260509123013 9 18 0.0 0.0 0.08 0.18 0.18 83 1011.9
20260509121509 8 18 0.0 0.0 0.05 0.15 0.15 83 1012.3
20260509120018 8 18 0.0 0.0 0.03 0.13 0.13 83 1012.4
20260509114508 8 18 0.0 0.0 0.03 0.13 0.13 83 1012.3
20260509113008 8 338 0.0 0.0 0.00 0.10 0.10 83 1012.2
20260509111512 9 334 0.0 0.0 0.03 0.10 0.10 83 1011.8
20260509110007 9 334 0.0 0.0 0.03 0.10 0.10 83 1011.8
20260509104507 8 334 0.0 0.0 0.03 0.10 0.10 83 1011.8
20260509103006 8 334 0.0 0.0 0.05 0.10 0.10 83 1011.7
20260509101513 9 334 0.0 0.0 0.05 0.08 0.08 83 1011.8
20260509100006 9 334 1.6 6.4 0.05 0.08 0.08 82 1012.1
20260509094501 10 334 4.8 12.9 0.05 0.08 0.08 81 1012.1
20260509093102 10 334 6.4 16.1 0.03 0.05 0.05 80 1012.3
20260509091555 10 305 8.0 16.1 0.00 0.03 0.03 79 1012.4
20260509090057 10 296 6.4 16.1 0.00 0.03 0.03 76 1012.5
20260509084551 11 291 6.4 12.9 0.00 0.03 0.03 71 1012.2
20260509083047 12 271 9.7 22.5 0.00 0.03 0.03 66 1012.7
20260509081551 12 288 14.5 24.1 0.03 0.03 0.03 63 1012.4
20260509080042 12 271 6.4 14.5 0.03 0.03 0.03 66 1012.1
20260509074541 11 248 4.8 11.3 0.03 0.03 0.03 67 1012.0
20260509073046 11 245 0.0 9.7 0.03 0.03 0.03 68 1011.8
20260509071546 12 246 0.0 0.0 0.00 0.00 0.00 64 1011.9
20260509070042 12 241 0.0 0.0 0.00 0.00 0.00 59 1012.0
20260509064534 12 241 0.0 0.0 0.00 0.00 0.00 58 1011.8
20260509063055 12 241 0.0 0.0 0.00 0.00 0.00 58 1011.6
20260509061550 12 241 0.0 0.0 0.00 0.00 0.00 58 1011.7
20260509060048 12 241 0.0 0.0 0.00 0.00 0.00 58 1012.0
20260509054529 12 241 0.0 0.0 0.00 0.00 0.00 58 1011.8
20260509053025 13 241 0.0 0.0 0.00 0.00 0.00 56 1012.2
20260509051522 13 241 0.0 0.0 0.00 0.00 0.00 53 1012.3
20260509050021 13 242 0.0 0.0 0.00 0.00 0.00 51 1012.5
20260509044523 13 241 0.0 0.0 0.00 0.00 0.00 52 1012.6
20260509043016 13 241 0.0 0.0 0.00 0.00 0.00 52 1012.7
20260509041514 13 241 0.0 0.0 0.00 0.00 0.00 51 1013.0
20260509040012 14 241 0.0 0.0 0.00 0.00 0.00 51 1013.0
20260509034512 14 241 0.0 0.0 0.00 0.00 0.00 50 1013.0
20260509033011 14 241 0.0 0.0 0.00 0.00 0.00 50 1013.1
20260509031510 14 241 0.0 0.0 0.00 0.00 0.00 51 1013.2
20260509030011 14 241 0.0 0.0 0.00 0.00 0.00 51 1013.3
20260509024515 13 241 0.0 0.0 0.00 0.00 0.00 51 1013.4